Other Surface Observations
Issued by NWS Tucson, AZ

Home | Current Version | Previous Version | Text Only | Print | Product List | Glossary On
Versions: 1 2 3 4 5 6 7 8 9 10 11 12 13 14 15 16 17 18 19 20 21 22 23 24 25 26 27 28 29 30 31 32 33 34 35 36 37 38 39 40 41 42 43 44 45 46 47 48 49 50
000
SXUS55 KTWC 102216
OSOTWC

WEATHER ROUNDUP FOR SOUTHEAST ARIZONA
NATIONAL WEATHER SERVICE TUCSON AZ
315 PM MST THU JUL 10 2014

AZZ504>506-514-102315-
LOCATION       SKY/WX    TMP DP  RH WIND       PRES   REMARKS
TUCSON         MOSUNNY   98  55  23 VRB5      29.91F
DAVIS-MONTHAN  MOSUNNY   96  57  27 VRB3      29.90F
CHILDRENS PARK N/A       95  56  27 N3                PIMA CO DEQ
ALVERNON/22ND  N/A      N/A N/A N/A N/A               PIMA CO DEQ
CHERRY/GLENN   N/A      N/A N/A N/A N/A               PIMA CO DEQ
TANGERINE      N/A       96 N/A N/A NW3               PIMA CO DEQ
CONTL RANCH    N/A       97  55  25 N6                PIMA CO DEQ
GRANT/1ST      N/A       95  56  27 NW2               PIMA CO DEQ
CRAYCROFT/22ND N/A      N/A N/A N/A N/A               PIMA CO DEQ
GOLFLINKS/KOLB N/A      N/A N/A N/A N/A               PIMA CO DEQ
AJO/12TH       N/A       95  58  29 E1                PIMA CO DEQ
SAGUARO EAST   N/A      N/A N/A N/A N/A               PIMA CO DEQ
FAIRGROUNDS    N/A       91 N/A N/A W5                PIMA CO DEQ
SAGUARO        N/A       98  57  26 W9G16             *SABINO CYN
SAN CARLOS     N/A       98  57  26 SW6G15            *SAN CARLOS
GREEN VALLEY   N/A       93  56  29 E4                PIMA CO DEQ
HORSE CAMP CYN N/A       93  55  28 SW11G23           *ARAVAIPA CYN
RINCON MTNS    N/A       76  52  44 SW3G11            *NR MANNING CAMP
$$

AZZ509>511-102315-
LOCATION       SKY/WX    TMP DP  RH WIND       PRES   REMARKS
SAFFORD        MOSUNNY   99  54  22 W22G29    29.87F
STRAY HORSE    N/A       73  45  37 W3G10             *
TRAIL CABIN    N/A       81  42  25 NW9G15            *N OF GRANVILLE
BLACK HILLS    N/A       91  53  28 SW12G21           *N OF FT THOMAS
DRY LAKE       N/A       77  49  38 W4G10             *NATANES MTNS
NOON CREEK     N/A       84  58  41 SW3               *PINALENO MTNS
COLUMBINE      N/A       62  49  63 SW3               *PINALENO MTNS
GUTHRIE        N/A       84  51  32 SW12G24           *SW OF GUTHRIE
$$

AZZ502-503-513-102315-
LOCATION       SKY/WX    TMP DP  RH WIND       PRES   REMARKS
NOGALES        MOSUNNY   91  56  30 SW8       30.00F
SELLS          N/A       95  61  33 NW5G16            *
SASABE         N/A       93  60  33 SE4G15            *ALTAR VLY
HOPKINS        N/A       89  59  37 W6G12             *SANTA RITA MTNS
CARR CYN       N/A       81  54  39 CALM              *W OF HEREFORD
$$

AZZ507-508-512-102315-
LOCATION       SKY/WX    TMP DP  RH WIND       PRES   REMARKS
SIERRA VISTA   MOSUNNY   90  52  27 W8        30.05F
DOUGLAS        MOSUNNY   93  52  24 VRB5      29.98F
EMPIRE MTNS    N/A       87  58  37 NW8G13            *LAS CIENEGAS NCA
MULESHOE RANCH N/A       89  55  32 NW14G22           *PRESERVE
HEADQUARTERS   N/A       71  68  89 CALM              *CHIRICAHUA MTNS
$$

.............................NOTES.............................
THIS IS AN AUTOMATED COLLECTIVE WITH MINIMAL QUALITY CONTROL.
PIMA CO DEQ SITES HAVE NONSTANDARD WIND SENSOR HEIGHTS.
PIMA CO DEQ SITES DO NOT REPORT WIND GUSTS.
* INDICATES WIND SENSORS LOCATED AT 20 FEET INSTEAD OF 33 FEET.
..............................KEY..............................
SKY/WX - SKY CONDITION/WEATHER
TMP    - TEMPERATURE IN FAHRENHEIT
DP     - DEWPOINT IN FAHRENHEIT
RH     - RELATIVE HUMIDITY IN PERCENT
WIND   - DIRECTION AND SPEED IN MILES PER HOUR (MPH)
VRB    - VARIABLE WIND DIRECTION
PRES   - MEAN SEA LEVEL PRESSURE IN INCHES OF MERCURY
         F - FALLING PRESSURE   R - RISING PRESSURE
         S - STEADY PRESSURE
VSB    - VISIBILITY IN MILES
HX     - HEAT INDEX IN FAHRENHEIT
WCI    - WIND CHILL INDEX IN FAHRENHEIT
N/A    - NOT AVAILABLE
AFB    - AIR FORCE BASE
         DAVIS-MONTHAN IS DAVIS-MONTHAN AIR FORCE BASE
CYN    - CANYON
MTNS   - MOUNTAINS
NCA    - NATIONAL CONSERVATION AREA
NR     - NEAR
VLY    - VALLEY
CONTL  - CONTINENTAL
PIMA CO DEQ - PIMA COUNTY DEPT OF ENVIRONMENTAL QUALITY



USA.gov is the U.S. government's official web portal to all federal, state and local government web resources and services.